User: anonymous   Login
Location: Unspecified
(0.0000°N, 0.0000°E)
Time: 19:53:32
(UTC+00:00)
Language:

Nadezhda 1 - Orbit

View from above orbital plane
View from above orbital plane
View from above satellite
View from above satellite

Ground track
Ground track

The orbit data is extracted from the following two-line orbital elements,

1 20103U 89050A   17269.13093191  .00000040  00000-0  26010-4 0  9997
2 20103  82.9600 134.2582 0037527 356.4480 113.9094 13.74552351415993
Epoch (UTC): 26 September 2017 03:08:32
Eccentricity: 0.0037527
inclination: 82.9600°
perigee height: 955 km
apogee height: 1011 km
right ascension of ascending node: 134.2582°
argument of perigee: 356.4480°
revolutions per day: 13.74552351
mean anomaly at epoch: 113.9094°
orbit number at epoch: 41599

The dashed part of the orbit path shows where the satellite is in the earth's shadow,  

DLR